Location: Newark
(45.8667°N, 9.7333°E)
Time: 21:13:54
(UTC+00:00)

A-11 Canister half - Pass Details

Date: 21 January 2020
Orbit: 1517 x 1683 km, 47.2° (Epoch: 19 February)

Event Time Altitude Azimuth Distance (km) Brightness Sun altitude
Rises 21:48:19 0° 188° (S) 4,741 - -56.4°
Reaches altitude 10° 21:52:22 10° 174° (S) 3,734 - -56.9°
Maximum altitude 21:58:52 21° 129° (SE) 2,909 - -57.7°
Drops below altitude 10° 22:05:17 10° 85° (E) 3,687 - -58.4°
Sets 22:09:13 0° 70° (ENE) 4,666 - -58.9°
